Regional Weather Roundup
Issued by NWS

Home | Current Version | Previous Version | Text Only | Print | Product List | Glossary Off
Versions: 1 2 3 4 5 6 7 8 9 10 11 12 13 14 15 16 17 18 19 20 21 22 23 24 25 26 27 28 29 30 31 32 33 34 35 36 37 38 39 40 41 42 43 44 45 46 47 48 49 50

000
ASUS43 KMPX 242101
RWRMN
WEATHER ROUNDUP FOR MINNESOTA
NATIONAL WEATHER SERVICE TWIN CITIES/CHANHASSEN MN
400 PM CDT SUN SEP 24 2017


NOTE: "FAIR" INDICATES FEW OR NO CLOUDS BELOW 12,000 FEET WITH NO
SIGNIFICANT WEATHER AND/OR OBSTRUCTIONS TO VISIBILITY. N/A MEANS
CURRENT SKY AND/OR WEATHER CONDITIONS ARE NOT AVAILABLE.

MNZ060>063-068>070-242200-
   Twin Cities Metro

CITY           SKY/WX    TMP DP  RH WIND       PRES   REMARKS
TWIN CITIES    PTSUNNY   90  63  40 S17       29.85F HX  91
ST PAUL        MOSUNNY   88  62  41 S17G28    29.85F
CRYSTAL        MOSUNNY   88  61  40 S14G23    29.83F
BLAINE         PTSUNNY   90  63  40 S15G26    29.85F HX  90
LAKEVILLE      MOSUNNY   88  63  42 S12G17    29.87F
EDEN PRAIRIE   CLOUDY    89  64  43 S14       29.83F HX  90
SOUTH ST PAUL  MOSUNNY   90  59  36 S9        29.85F
LAKE ELMO      FAIR      88  64  45 S14       29.88F
$$
MNZ001>005-007-008-013>017-022>024-027-028-242200-
   Northwest Minnesota

CITY           SKY/WX    TMP DP  RH WIND       PRES   REMARKS
BEMIDJI        CLOUDY    71  65  79 SW12G17   29.80F
HALLOCK        DRIZZLE   54  52  94 NW12      29.88S
ROSEAU         RAIN      55  52  88 NW9       29.84F
CROOKSTON      RAIN      54  54 100 N17       29.86S
FOSSTON        DRIZZLE   57  57 100 W6        29.84S
DETROIT LAKES  LGT RAIN  61  59  94 W8G16     29.86R
MOORHEAD       RAIN      55  54  94 NW7       29.88S
PARK RAPIDS    CLOUDY    74  66  76 SW10      29.82S
MAHNOMEN       LGT RAIN  58  57  97 W9        29.85R
$$
MNZ006-009>011-018-025>026-242200-
   North Central Minnesota

CITY           SKY/WX    TMP DP  RH WIND       PRES   REMARKS
BAUDETTE       CLOUDY    61  61 100 N6        29.80F
FLAG ISLAND    LGT RAIN  57  55  94 CALM      29.80R
INTL FALLS     PTSUNNY   74  66  76 CALM      29.78F
WASKISH        CLOUDY    66  64  94 CALM      29.80S
BIG FORK       CLOUDY    79  68  69 S9G17     29.80F
LONGVILLE      CLOUDY    77  68  73 W7        29.81S
GRAND RAPIDS   PTSUNNY   79  68  69 S10G17    29.84F
CRANE LAKE     CLOUDY    79  66  65 S7        29.82F
ORR            CLOUDY    81  64  57 S9G20     29.79
WALKER         FAIR      75  67  75 SW9       29.80F
$$
MNZ012-019>021-037-242200-
   Northeast Minnesota

CITY           SKY/WX    TMP DP  RH WIND       PRES   REMARKS
DULUTH         MOSUNNY   78  67  68 S9        29.88F
ELY            MOSUNNY   81  63  54 S10G18    29.86F
HIBBING        PTSUNNY   80  64  58 S9G18     29.83F
EVELETH        MOSUNNY   81  53  37 SW13      29.86F
DULUTH HARBOR  SUNNY     66  63  88 NE8       29.88F
GRAND MARAIS     N/A     65  62  90 NE7       29.88F
$$
MNZ029>031-032-039>041-046>048-054>057-064-242200-
   West Central Minnesota

CITY           SKY/WX    TMP DP  RH WIND       PRES   REMARKS
FERGUS FALLS   DRIZZLE   61  61 100 NW10      29.86R
WHEATON        LGT RAIN  63  59  88 W8        29.88S
ALEXANDRIA     LGT RAIN  73  67  81 W14       29.85S
ELBOW LAKE     LGT RAIN  65  64  97 NW9G16    29.86R
WADENA         CLOUDY    72  64  78 W7        29.83R
GLENWOOD       PTSUNNY   73  70  88 W12       29.84S
APPLETON       LGT RAIN  70  63  78 W20       29.85R
BENSON         LGT RAIN  72  64  78 NW20      29.86R
ORTONVILLE     LGT RAIN  64  61  88 W10G16    29.86F
MADISON        CLOUDY    72  64  78 W13       29.86S
WILLMAR        FAIR      82  70  65 SW3       29.83F
$$
MNZ033>034-036-042>043-049>051-058-059-242200-
   Central Minnesota

CITY           SKY/WX    TMP DP  RH WIND       PRES   REMARKS
ST CLOUD       PTSUNNY   85  66  53 S18       29.82F
SAUK CENTRE    FAIR      71  65  82 S8        29.82F
PAYNESVILLE    CLOUDY    78  65  64 SW6       29.83F
AITKIN         PTSUNNY   81  66  61 S10G17    29.81F
PINE RIVER     PTSUNNY   72  66  83 W5        29.85S
BRAINERD       CLOUDY    78  69  73 S9        29.82F
STAPLES        CLOUDY    70  70 100 SW7       29.83R
LITTLE FALLS   CLOUDY    73  57  56 SW23G36   29.86R
LITCHFIELD     MOSUNNY   84  66  54 S7G16     29.82F
BUFFALO        PTSUNNY   86  62  45 S7        29.85F
MAPLE LAKE     MOSUNNY   84  67  56 S5        29.85F
HUTCHINSON     CLOUDY    83  68  59 S12G20    29.85F
$$
MNZ037-044-045-052-053-242200-
   East Central Minnesota

CITY           SKY/WX    TMP DP  RH WIND       PRES   REMARKS
PRINCETON      MOSUNNY   81  73  78 S5        29.85F
MORA           HVY RAIN  72  63  73 SW7G24    29.87S
RUSH CITY      MOSUNNY   85  62  45 S10G18    29.86F
MOOSE LAKE     MOSUNNY   82  66  57 S6        29.84F
HINCKLEY       FAIR      84  66  54 S12G17    29.85F
CLOQUET        LGT RAIN  81  64  57 S6        29.87F
MCGREGOR       MOSUNNY   82  66  57 S13G21    29.84F
$$
MNZ071>073-080-081-089-090-097-098-242200-
   Southwest Minnesota

CITY           SKY/WX    TMP DP  RH WIND       PRES   REMARKS
MONTEVIDEO     LGT RAIN  70  64  83 NW10      29.86R
GRANITE FALLS  RAIN      74  68  80 SW16G32   29.87R
CANBY          CLOUDY    68  61  78 W13G18    29.88F
MARSHALL       MOSUNNY   71  65  81 W14       29.86R
REDWOOD FALLS  MOSUNNY   86  62  44 SW17G28   29.81F
OLIVIA         MOSUNNY   82  64  54 SW12      29.82F
PIPESTONE      CLOUDY    68  63  83 NW9       29.90F
WORTHINGTON    LGT RAIN  72  64  76 SW8G24    29.90R
JACKSON        MOSUNNY   86  59  39 SW15G23   29.87F
TRACY          CLOUDY    76  68  75 W10G17    29.88R
SLAYTON        CLOUDY    78  61  54 W17       29.89R
$$
MNZ065>067-074>077-082>085-091>093-242200-
   South Central Minnesota

CITY           SKY/WX    TMP DP  RH WIND       PRES   REMARKS
MANKATO        MOSUNNY   88  62  41 S13G21    29.85
NEW ULM        CLOUDY    88  61  40 S14       29.83F
ST JAMES       MOSUNNY   88  61  40 S13G20    29.84F
FAIRMONT       CLOUDY    87  62  43 S20G26    29.86F
FARIBAULT      MOSUNNY   88  63  42 S12       29.88F
OWATONNA       SUNNY     90  61  37 S12G20    29.88F
WASECA         MOSUNNY   88  55  33 S10G21    29.89F
ALBERT LEA     SUNNY     90  57  33 S10G20    29.90F
$$
MNZ078>079-086>088-094>096-242200-
   Southeast Minnesota

CITY           SKY/WX    TMP DP  RH WIND       PRES   REMARKS
ROCHESTER      MOSUNNY   86  62  44 SW13G21   29.93F
RED WING       SUNNY     90  55  31 S9        29.87F
STANTON        LGT RAIN  82  64  53 S6G25     29.87F
DODGE CENTER   SUNNY     90  55  31 S15       29.92F
WINONA         PTSUNNY   90  61  37 S5        29.92F
AUSTIN         CLOUDY    86  57  37 S14G20    29.91F
PRESTON        MOSUNNY   85  59  40 S9G18     29.94F
$$
ABBREVIATIONS USED IN REMARKS
   TC - TEMPERATURES IN CELSIUS
  WCI - WIND CHILL INDEX
   HX - HEAT INDEX
  VSB - VISIBILITY
$$



USA.gov is the U.S. government's official web portal to all federal, state and local government web resources and services.